Location: Fredericksburg
(30.2750°N, 98.8720°W)
Time: 18:17:04
(UTC-06:00)

Daily predictions for brighter satellites

Satellite Brightness Start Highest point End
(mag) Time Altitude Azimuth Time Altitude Azimuth Time Altitude Azimuth
Meteor 1-5 Rocket 4.4 17:53:15 10° N 17:58:27 47° E 18:03:48 10° SSE
PAYLOAD A 4.0 17:57:21 10° S 18:02:03 85° WSW 18:06:54 10° NNW
Tiangong 1 3.1 18:02:20 10° S 18:04:11 15° SE 18:06:02 10° E
ASTRO F (AKARI) 4.3 18:01:18 10° NNE 18:04:23 58° E 18:07:29 10° S
NOSS 3-1 (C) 4.3 17:58:01 10° NNW 18:05:56 83° WSW 18:14:23 10° SSE
IDEFIX/ARIANE 42P 2.5 18:03:31 10° SSE 18:08:41 69° ENE 18:13:50 10° N
CRYOSAT 2 4.4 18:05:46 10° N 18:10:41 89° E 18:15:34 10° S
OPS 8737 4.4 18:08:58 10° SSW 18:12:41 71° ESE 18:15:53 10° NE
Okean 1 4.3 18:09:18 10° SSE 18:12:45 28° E 18:16:14 10° NNE
USA 32 4.0 18:07:36 10° S 18:12:48 73° E 18:18:00 10° N
Cosmos 1536 3.4 18:14:17 10° NNW 18:18:18 62° W 18:22:19 10° S
Hubble Space Telescope 1.6 18:18:26 10° W 18:22:25 48° SSW 18:26:25 10° ESE
Cosmos 1975 Rocket 4.4 18:18:59 10° SSW 18:23:04 41° W 18:27:09 10° N
Meteor 1-18 Rocket 4.2 18:17:47 10° S 18:23:17 64° E 18:28:53 10° NNE
COSMO-SKYMED 1 2.7 18:19:35 10° NNE 18:23:51 56° E 18:28:05 10° S
Cosmos 1461 3.4 18:20:01 10° NW 18:23:53 59° WSW 18:27:47 10° SSE
Cosmos 1544 Rocket 3.7 18:21:55 10° N 18:26:17 55° E 18:30:39 10° SSE
SMAP 3.4 18:22:05 10° S 18:26:43 71° W 18:31:21 10° NNW
MSX 3.8 18:24:07 10° SSE 18:29:50 73° ENE 18:35:34 10° N
SL-24 DEB 4.3 18:26:25 10° NNE 18:31:07 62° E 18:35:43 10° S
CZ-4 R/B 3.1 18:28:53 10° SSW 18:32:48 38° W 18:36:44 10° NNW
Meteor 1-28 Rocket 3.8 18:29:51 11° NNE 18:33:09 35° E 18:36:38 10° SSE
Cosmos 1346 Rocket 3.4 18:32:35 10° SSE 18:36:09 34° E 18:38:33 17° NE
Cosmos 1536 Rocket 3.5 18:35:03 10° S 18:39:28 78° E 18:43:57 10° N
Cosmos 1812 2.9 18:37:28 10° S 18:41:19 74° W 18:45:10 10° N
YAOGAN 1 4.0 18:41:56 10° S 18:46:01 41° W 18:50:07 10° NNW
NOSS 3-3 (A) 3.9 18:40:20 10° SSW 18:46:25 89° ESE 18:52:24 12° NNE
NOSS 3-3 (C) 3.9 18:40:27 10° SSW 18:46:31 88° ESE 18:52:27 13° NNE
Cosmos 494 Rocket 4.2 18:44:41 10° N 18:49:43 46° ENE 18:54:44 10° SE
OTV 4 1.5 18:52:32 10° NW 18:55:03 31° N 18:55:03 31° N
Cosmos 2251 Rocket 3.4 18:51:30 10° N 18:56:49 66° ENE 19:02:04 10° SSE
FALCON 9 R/B 3.7 18:28:56 10° WSW 18:57:15 83° NNW 19:01:52 27° ENE
Meteor 1-12 Rocket 4.2 18:52:32 10° N 18:58:20 80° E 19:04:13 10° S
Cosmos 1975 2.7 18:54:39 10° N 18:58:41 63° E 19:02:40 10° SSE
Okean 1-7 Rocket 3.9 18:56:03 10° SSE 19:00:20 43° E 19:01:25 36° NE
ATLAS 2AS CENTAUR R/B 3.0 18:53:32 10° NNW 19:01:23 57° ENE 19:08:35 10° SE
SL-27 R/B 2.8 19:02:59 10° NNW 19:06:38 68° WSW 19:10:12 10° S
Cosmos 2366 rocket 4.4 19:01:13 10° NNW 19:07:29 66° W 19:13:41 10° S
GEOS 3 Rocket 3.4 19:03:12 10° SE 19:08:17 69° ENE 19:13:22 10° NNW
Cosmos 2297 3.7 19:03:28 10° S 19:09:01 62° ESE 19:11:32 32° NE
SL-24 R/B - RUBIN 2 4.3 19:06:05 10° SSW 19:12:06 76° ESE 19:15:39 29° NE
Cosmos 921 Rocket 3.2 19:08:39 10° S 19:12:16 47° ESE 19:12:16 47° ESE
Meteor 1-19 Rocket 4.2 19:08:57 10° S 19:14:34 61° E 19:17:46 26° NNE
Cosmos 1455 Rocket 4.2 19:11:52 10° NNW 19:16:04 45° W 19:20:16 10° SSW
ATLAS 3B CENTAUR R/B 3.2 19:00:58 10° WSW 19:18:57 75° S 19:22:04 38° E
Timation 1 Rocket 4.2 19:17:08 10° S 19:23:00 67° ESE 19:24:42 46° NE
Delta 2 Rocket 3.3 19:22:27 10° WSW 19:26:31 86° S 19:26:31 86° S
Cosmos 2278 Rocket 3.4 19:21:38 10° SW 19:26:52 38° WNW 19:31:58 11° N
Meteor 1-13 Rocket 4.3 19:22:39 10° S 19:28:13 78° W 19:32:59 15° N
CZ-3B DEB 4.2 19:26:01 10° WNW 19:29:41 22° NNW 19:34:11 15° NNE
Cosmos 2239 Rocket 4.4 19:29:26 10° N 19:35:34 62° E 19:41:38 10° SSE
Tiangong 1 3.8 19:37:15 10° WSW 19:38:20 19° W 19:38:20 19° W
Meteor 1-23 Rocket 4.4 19:42:08 10° S 19:46:47 58° SSE 19:46:47 58° SSE
Hubble Space Telescope 3.3 20:00:24 10° WSW 20:02:26 17° SW 20:02:26 17° SW
Mugunghwa Rocket 4.3 19:56:11 10° WSW 20:03:49 64° S 20:03:54 64° S
Aurora 2 Rocket 4.3 19:56:03 10° WSW 20:05:51 56° S 20:06:39 54° SSE
Meteor 2-4 Rocket 4.4 20:05:23 10° SSW 20:09:54 49° WSW 20:09:54 49° WSW
